CAPE
1237 1111 975 373 1032 1141 1291 1349 991 1076 560 44 0 0 0 0 0 1 0 0 0 0
1554 1307 1123 849 946 1129 1014 1099 913 1058 437 65 3 2 10 0 0 18 0 0 0 0
1434 1625 1211 828 1206 1064 873 1003 915 825 540 146 14 72 15 4 0 9 7 0 0 0
1645 1384 1496 1230 1256 1410 846 587 859 711 662 305 87 26 0 1 3 0 6 5 0 0
2035 1836 1510 1410 1453 1197 1201 643 823 710 897 655 243 32 80 0 0 5 0 0 0 0
2240 2151 1864 1511 1544 1479 1253 698 697 633 1007 862 452 157 85 11 0 0 4 0 0 0
2479 2343 2279 1920 1640 1556 1604 984 820 778 711 972 686 251 207 73 0 0 0 0 0 0
2607 2560 2543 2338 2043 1773 2066 1292 939 604 784 620 701 493 255 188 31 0 1 1 0 0
2782 2703 2679 2718 2566 2037 1957 1990 1072 724 524 591 716 583 241 238 134 22 3 0 0 25
2776 2725 2687 2723 2700 2599 2070 1733 1514 923 773 691 732 500 52 91 184 66 53 0 0 45
2910 2750 2690 2729 2768 2642 2575 2044 1885 1328 1006 856 487 87 34 111 156 83 17 15 35 172
2828 2622 2684 2611 2764 2582 2648 2413 2250 1564 1119 859 562 0 0 42 89 125 33 21 142 233
2694 2543 2547 2669 2688 2700 2665 2610 1848 1352 1059 668 327 0 1 0 0 12 3 12 18 3
2543 2563 2540 2745 2738 2842 2455 2189 1713 987 297 154 164 19 9 0 0 0 0 0 0 1
CIN
-234 -196 -200 -330 -175 -154 -118 -113 -186 -174 -253 -400 -0 -0 -0 -0 -0 -232 -0 -0 -0 -0
-197 -181 -175 -263 -208 -177 -185 -174 -232 -187 -295 -427 -97 -47 -532 -0 -0 -373 -0 -0 -0 -0
-241 -168 -175 -268 -200 -223 -249 -227 -236 -253 -301 -405 -560 -470 -527 -561 -0 -320 -405 -0 -0 -0
-252 -226 -165 -220 -229 -192 -256 -313 -261 -289 -293 -353 -467 -282 -0 -158 -436 -0 -435 -398 -0 -0
-224 -215 -214 -227 -212 -263 -233 -327 -282 -304 -266 -293 -372 -543 -481 -0 -0 -434 -0 -0 -0 -0
-219 -213 -245 -268 -238 -264 -254 -360 -335 -342 -258 -276 -343 -423 -462 -531 -0 -0 -215 -0 -0 -0
-237 -251 -242 -271 -284 -275 -244 -334 -334 -324 -317 -268 -297 -403 -418 -500 -0 -0 -0 -0 -0 -0
-278 -241 -213 -227 -264 -272 -195 -290 -333 -371 -309 -344 -315 -370 -415 -434 -498 -0 -113 -291 -0 -0
-286 -248 -231 -204 -212 -261 -253 -220 -330 -342 -374 -360 -315 -336 -450 -434 -456 -458 -299 -0 -0 -197
-313 -284 -266 -229 -199 -200 -245 -261 -242 -329 -338 -336 -327 -402 -598 -517 -390 -429 -372 -0 -0 -172
-327 -327 -279 -237 -221 -203 -161 -207 -196 -260 -272 -276 -261 -427 -660 -506 -407 -362 -330 -332 -263 -127
-348 -351 -301 -289 -240 -221 -155 -139 -161 -263 -311 -301 -174 -85 -0 -564 -356 -262 -321 -302 -178 -128
-399 -354 -345 -305 -254 -219 -184 -153 -229 -313 -342 -379 -505 -0 -536 -0 -0 -360 -339 -279 -190 -123
-425 -379 -355 -286 -229 -184 -200 -181 -223 -346 -567 -585 -509 -622 -197 -0 -0 -0 -52 -0 -0 -91
Wind_Speed
16 10 8 8 6 8 9 10 12 11 9 8 8 8 7 5 4 5 4 6 4 3
15 14 10 9 10 8 10 9 10 11 11 10 9 9 8 5 6 5 5 5 4 3
17 14 10 9 11 9 9 10 10 11 12 12 11 10 9 6 5 6 4 4 5 4
15 15 12 11 11 11 11 12 12 13 13 14 12 10 9 7 7 7 7 5 6 7
15 15 16 15 13 10 12 12 14 14 14 14 13 11 11 10 9 8 8 7 6 7
17 16 17 17 16 12 12 12 13 14 15 14 13 12 11 11 10 10 9 8 8 7
19 19 17 17 16 15 13 12 13 13 14 14 13 12 13 12 12 10 9 8 8 8
19 17 17 17 17 14 13 13 13 12 11 11 12 11 13 13 11 12 8 7 7 8
19 18 18 17 16 15 12 12 11 12 12 12 10 15 16 15 12 10 11 9 7 7
19 18 18 17 16 15 15 11 12 12 12 12 13 14 16 12 9 8 8 9 8 7
19 19 17 16 17 14 13 13 13 13 13 10 9 11 17 16 8 8 9 9 9 8
20 18 17 18 17 14 13 13 13 13 14 14 17 10 13 12 8 10 8 6 6 7
19 18 17 18 17 13 14 14 11 12 10 11 12 15 14 13 6 7 4 4 4 7
19 19 17 14 13 14 13 11 11 9 6 10 11 13 16 13 7 6 5 4 4 4
Wind_Direction
196 201 199 184 181 196 191 189 187 185 177 175 166 171 170 169 173 173 186 189 191 171
198 201 195 178 189 191 191 190 184 180 176 179 177 178 169 170 176 176 192 208 198 191
200 197 191 180 190 187 189 190 176 178 182 182 183 179 173 172 182 177 196 206 205 213
197 195 188 196 196 193 189 192 185 183 187 187 183 182 182 177 179 181 197 205 206 231
192 188 197 206 207 191 194 192 189 185 188 189 189 184 187 182 191 184 194 206 205 219
195 191 198 203 207 199 196 189 186 186 191 189 189 188 193 188 186 194 195 196 200 213
197 195 198 201 205 205 195 186 191 190 189 192 187 190 193 190 192 193 195 194 202 204
199 196 196 200 203 201 199 193 187 184 191 189 186 193 197 196 196 196 187 194 204 209
194 194 197 198 199 197 189 187 172 181 183 180 195 196 188 189 193 204 192 202 211 218
195 195 196 194 192 194 191 164 169 173 179 191 205 203 188 193 188 185 196 203 203 212
197 196 192 189 192 184 183 170 172 178 182 193 231 191 184 183 173 195 206 210 200 206
198 193 187 190 187 178 174 176 180 181 170 179 181 194 160 169 188 208 209 204 195 197
190 190 188 188 182 176 172 173 171 181 196 187 161 166 167 192 190 199 183 178 198 205
186 186 186 171 166 161 165 165 169 173 162 156 152 178 197 177 174 168 173 176 188 201